User: anonymous
Location: Unspecified
(0.0000°N, 0.0000°E)
Time: 15:47:58
(UTC+02:00)
Language:

Helios 1A Rocket - Orbit

View from above orbital plane
View from above orbital plane
View from above satellite
View from above satellite

Ground track
Ground track

The orbit data is extracted from the following two-line orbital elements,

1 23608U 95033D   14109.50886343  .00005459  00000-0  54315-3 0  1762
2 23608 098.3056 327.8620 0019730 093.5613 266.7861 14.91961569 15279
Epoch (UTC): 19 April 2014 12:12:45
Eccentricity: 0.0019730
inclination: 98.3056°
perigee height: 578 km
apogee height: 605 km
right ascension of ascending node: 327.8620°
argument of perigee: 93.5613°
revolutions per day: 14.91961569
mean anomaly at epoch: 266.7861°
orbit number at epoch: 1527

The dashed part of the orbit path shows where the satellite is in the earth's shadow,  

DLR